Regional Weather Roundup
Issued by NWS

Home | Current Version | Previous Version | Text Only | Print | Product List | Glossary On
Versions: 1 2 3 4 5 6 7 8 9 10 11 12 13 14 15 16 17 18 19 20 21 22 23 24 25 26 27 28 29 30 31 32 33 34 35 36 37 38 39 40 41 42 43 44 45 46 47 48 49 50
000
ASUS43 KLSX 202359
RWRMO

WEATHER SUMMARY FOR MISSOURI
NATIONAL WEATHER SERVICE SPRINGFIELD MO
700 PM CDT SAT SEP 20 2014

NOTE: "FAIR" INDICATES FEW OR NO CLOUDS BELOW 12,000 FEET WITH NO
       SIGNIFICANT WEATHER AND/OR OBSTRUCTIONS TO VISIBILITY.
       CURRENT SKY AND/OR WEATHER CONDITIONS ARE NOT AVAILABLE FOR
       CHILLICOTHE AND FARMINGTON.

MOZ001>031-035>038-043-044-053-054-210100-
...NORTHERN AND WESTERN MISSOURI...

CITY           SKY/WX    TMP DP  RH WIND       PRES   REMARKS
KANSAS CTY INT PTCLDY    77  71  82 SW6       29.93S
6HR MIN TEMP:  77; 6HR MAX TEMP:  82;

KANSAS C DTWN  PTCLDY    81  69  67 W5        29.91R
6HR MIN TEMP:  81; 6HR MAX TEMP:  84; 6HR PCP: TRACE;

LEE`S SUMMIT   MOCLDY    78  70  76 SW7       29.94R
6HR MIN TEMP:  78; 6HR MAX TEMP:  83;

ST JOSEPH      CLEAR     77  68  73 SW5       29.92S
6HR MIN TEMP:  75; 6HR MAX TEMP:  84;

KIRKSVILLE     PTCLDY    76  71  85 W3        29.90S
6HR MIN TEMP:  76; 6HR MAX TEMP:  80;


$$
MOZ066>068-077>081-088>096-101>105-210100-
...SOUTHWEST MISSOURI...

CITY           SKY/WX    TMP DP  RH WIND       PRES   REMARKS
SPRINGFIELD    MOCLDY    79  68  69 SW5       29.99F
6HR MIN TEMP:  79; 6HR MAX TEMP:  85;

JOPLIN         PTCLDY    80  69  69 SW9       29.98F
6HR MIN TEMP:  80; 6HR MAX TEMP:  85;


$$
MOZ032>034-039>042-045>050-055>058-069>072-210100-
...CENTRAL MISSOURI...

CITY           SKY/WX    TMP DP  RH WIND       PRES   REMARKS
COLUMBIA       PTCLDY    77  69  76 SW8       29.94F
6HR MIN TEMP:  77; 6HR MAX TEMP:  85;

JEFFERSON CITY PTCLDY    80  68  66 SW6       29.92F
6HR MIN TEMP:  80; 6HR MAX TEMP:  87;

ROLLA          MOCLDY    76  67  73 W6        29.95S
6HR MIN TEMP:  76; 6HR MAX TEMP:  84;

SEDALIA        MOCLDY    78  70  76 SW6       29.94F
6HR MIN TEMP:  78; 6HR MAX TEMP:  84;

OSAGE BEACH    PTCLDY    77  68  73 CALM      29.95F

$$
MOZ051-052-059>065-210100-
...EAST CENTRAL MISSOURI...

CITY           SKY/WX    TMP DP  RH WIND       PRES   REMARKS
ST LOUIS INTL  MOCLDY    83  67  58 W9        29.92R
6HR MIN TEMP:  83; 6HR MAX TEMP:  87;

SPIRIT OF STL  PTCLDY    78  68  71 CALM      29.91R
6HR MIN TEMP:  78; 6HR MAX TEMP:  86;

ST CHARLES     PTCLDY    81  67  62 SW6       29.90R
6HR MIN TEMP:  81; 6HR MAX TEMP:  86;


$$
MOZ072>076-082>087-097>100-106>115-210100-
...SOUTH CENTRAL AND SOUTHEAST MISSOURI...

CITY           SKY/WX    TMP DP  RH WIND       PRES   REMARKS
CAPE GIRARDEAU PTCLDY    78  69  73 SW5       29.95S
6HR MIN TEMP:  78; 6HR MAX TEMP:  85;

FARMINGTON     CLEAR     79  66  65 SW5       29.98R
6HR MIN TEMP:  79; 6HR MAX TEMP:  84;

POPLAR BLUFF   PTCLDY    80  67  64 S5        29.95S
6HR MIN TEMP:  80; 6HR MAX TEMP:  87;

WEST PLAINS    PTCLDY    79  68  69 SW3       30.01F
6HR MIN TEMP:  79; 6HR MAX TEMP:  85;


$$



USA.gov is the U.S. government's official web portal to all federal, state and local government web resources and services.